Lander, WY

9:49 PM MDT on May 20, 2018 (GMT -0600)
Hunt

Weather History for KLND - December, 2012

Change the Weather History Date:

Sunday, December 2, 2012

  Actual Average Record
Temperature  
Mean Temperature 46 °F 23 °F  
Max Temperature 62 °F 34 °F 62 °F (2012)
Min Temperature 30 °F 12 °F -12 °F (1985)
Degree Days  
Heating Degree Days 19 42  
Month to date heating degree days 39 84  
Since 1 July heating degree days 1538 1957  
Cooling Degree Days 0 0  
Month to date cooling degree days 0 0  
Year to date cooling degree days 779 472  
Moisture  
Dew Point 26 °F    
Average Humidity 47    
Maximum Humidity 72    
Minimum Humidity 21    
Precipitation  
Precipitation 0.01 in 0.02 in 0.98 in (1955)
Month to date precipitation 0.01 0.04  
Year to date precipitation 6.21 12.12  
Snow  
Snow 0.00 in 0.40 in - ()
Month to date snowfall 0.0 0.8  
Since 1 July snowfall 10.4 26.4  
Snow Depth 0.00 in    
Sea Level Pressure  
Sea Level Pressure 29.60 in    
Wind  
Wind Speed 12 mph (SW)    
Max Wind Speed 41 mph    
Max Gust Speed 60 mph    
Visibility 10 miles    
Events Rain    
T = Trace of Precipitation, MM = Missing Value Source: NWS Daily Summary

Daily Weather History Graph

Daily Weather History Graph

Search for Another Location

Airport or City:

Astronomy

Dec. 02, 2012 Rise Set
Actual Time 7:27 AM MST 4:41 PM MST
Civil Twilight 6:55 AM MST 5:13 PM MST
Nautical Twilight 6:20 AM MST 5:48 PM MST
Astronomical Twilight 5:46 AM MST 6:22 PM MST
Moon 8:34 PM MST (12/2) 10:17 AM MST (12/2)
Length of Visible Light 10h 17m
Length of Day
9h 14m
Waning Gibbous, 85% of the Moon is Illuminated
Dec 2
Waning Gibbous
Dec 6
Last Quarter
Dec 13
New
Dec 19
First Quarter
Dec 28
Full

Hourly Weather History & Observations

Time (MST) Temp. Windchill Dew Point Humidity Pressure Visibility Wind Dir Wind Speed Gust Speed Precip Events Conditions
12:53 AM 36.0 °F 31.1 °F 23.0 °F 59% 29.83 in 10.0 mi NNW 5.8 mph - N/A   Scattered Clouds
1:53 AM 36.0 °F 32.1 °F 23.0 °F 59% 29.79 in 10.0 mi WSW 4.6 mph - N/A   Mostly Cloudy
2:53 AM 35.1 °F 28.6 °F 23.0 °F 61% 29.79 in 10.0 mi West 8.1 mph - N/A   Partly Cloudy
3:53 AM 34.0 °F 31.0 °F 23.0 °F 64% 29.76 in 10.0 mi WNW 3.5 mph - N/A   Clear
4:53 AM 34.0 °F - 23.0 °F 64% 29.72 in 10.0 mi Calm Calm - N/A   Clear
5:53 AM 32.0 °F 25.6 °F 23.0 °F 69% 29.75 in 10.0 mi NNW 6.9 mph - N/A   Clear
6:53 AM 30.9 °F 26.2 °F 23.0 °F 72% 29.72 in 10.0 mi Variable 4.6 mph - N/A   Clear
7:53 AM 33.1 °F 27.7 °F 23.0 °F 66% 29.67 in 10.0 mi Variable 5.8 mph - N/A   Clear
8:53 AM 36.0 °F 33.3 °F 24.1 °F 62% 29.65 in 10.0 mi Variable 3.5 mph 18.4 mph N/A   Clear
9:53 AM 52.0 °F - 19.0 °F 27% 29.60 in 10.0 mi SW 10.4 mph 28.8 mph N/A   Clear
10:53 AM 59.0 °F - 19.9 °F 22% 29.53 in 10.0 mi South 15.0 mph 33.4 mph N/A   Clear
11:05 AM 60.8 °F - 21.2 °F 22% 29.60 in 10.0 mi SSW 31.1 mph 57.5 mph N/A   Clear
11:53 AM 61.0 °F - 24.1 °F 24% 29.50 in 10.0 mi North 8.1 mph - N/A   Partly Cloudy
12:18 PM 60.8 °F - 24.8 °F 25% 29.58 in 10.0 mi SSW 17.3 mph 36.8 mph N/A   Scattered Clouds
12:53 PM 61.0 °F - 25.0 °F 25% 29.48 in 10.0 mi South 15.0 mph 29.9 mph N/A   Partly Cloudy
1:23 PM 60.8 °F - 24.8 °F 25% 29.57 in 10.0 mi SW 9.2 mph 59.8 mph N/A   Squalls
1:53 PM 59.0 °F - 24.1 °F 26% 29.46 in 10.0 mi SSE 16.1 mph 29.9 mph N/A   Mostly Cloudy
2:53 PM 57.0 °F - 25.0 °F 29% 29.47 in 10.0 mi SW 24.2 mph 36.8 mph N/A   Clear
3:07 PM 57.2 °F - 24.8 °F 29% 29.53 in 10.0 mi West 23.0 mph 40.3 mph N/A   Clear
3:53 PM 55.9 °F - 24.1 °F 29% 29.49 in 10.0 mi ESE 19.6 mph 39.1 mph N/A   Scattered Clouds
4:53 PM 51.1 °F - 28.0 °F 41% 29.55 in 10.0 mi ESE 8.1 mph - N/A   Scattered Clouds
5:53 PM 48.0 °F - 32.0 °F 54% 29.54 in 10.0 mi South 36.8 mph 51.8 mph 0.00 in   Mostly Cloudy
6:53 PM 48.0 °F - 30.9 °F 52% 29.52 in 10.0 mi NNE 18.4 mph 32.2 mph N/A   Clear
7:06 PM 46.4 °F 40.7 °F 32.0 °F 57% 29.53 in 10.0 mi ESE 12.7 mph 32.2 mph N/A   Clear
7:38 PM 48.2 °F - 32.0 °F 54% 29.51 in 10.0 mi WSW 16.1 mph 29.9 mph N/A   Mostly Cloudy
7:53 PM 48.0 °F - 32.0 °F 54% 29.51 in 10.0 mi West 11.5 mph 32.2 mph N/A   Scattered Clouds
8:23 PM 46.4 °F 36.9 °F 33.8 °F 62% 29.52 in 10.0 mi SW 32.2 mph 41.4 mph 0.00 in Rain Light Rain
8:53 PM 45.0 °F 36.2 °F 36.0 °F 71% 29.54 in 8.0 mi SW 24.2 mph 38.0 mph 0.00 in Rain Light Rain
9:05 PM 44.6 °F 37.4 °F 37.4 °F 76% 29.58 in 9.0 mi WSW 16.1 mph 31.1 mph 0.00 in Rain Light Rain
9:53 PM 48.9 °F - 30.0 °F 48% 29.55 in 10.0 mi North 9.2 mph 36.8 mph 0.01 in   Overcast
10:53 PM 46.0 °F 39.3 °F 25.0 °F 44% 29.60 in 10.0 mi West 16.1 mph 28.8 mph N/A   Scattered Clouds
11:53 PM 39.9 °F 35.8 °F 27.0 °F 60% 29.63 in 10.0 mi SSW 5.8 mph - N/A   Clear